Location: Burzi?i
(45.0869°N, 16.0577°E)
Time: 08:14:31
(UTC+00:00)

Lacrosse 5 - Pass Details

Date: 29 October 2020
Orbit: 716 x 723 km, 57.0° (Epoch: 06 November)

Event Time Altitude Azimuth Distance (km) Brightness Sun altitude
Rises 16:30:06 0° 293° (WNW) 3,122 6.2 -8.1°
Reaches altitude 10° 16:33:03 10° 310° (NW) 2,202 5.0 -8.6°
Maximum altitude 16:36:51 21° 359° (N) 1,588 3.6 -9.2°
Drops below altitude 10° 16:40:41 10° 48° (NE) 2,204 3.9 -9.9°
Enters shadow 16:41:00 - 50° (NE) 2,292 3.9 -10.0°
